Regional Weather Roundup
Issued by NWS

Home | Current Version | Previous Version | Graphics & Text | Print | Product List | Glossary On
Versions: 1 2 3 4 5 6 7 8 9 10 11 12 13 14 15 16 17 18 19 20 21 22 23 24 25 26 27 28 29 30 31 32 33 34 35 36 37 38 39 40 41 42 43 44 45 46 47 48
000
ASUS45 KSLC 290110
RWRUT

UTAH REGIONAL WEATHER ROUNDUP
NATIONAL WEATHER SERVICE SALT LAKE CITY UT
700 PM MDT FRI AUG 28 2015

UTZ001>011-023>025-290200-

NORTHERN UTAH

CITY           SKY/WX    TMP DP  RH WIND       PRES   REMARKS
BRIGHAM CITY   PTSUNNY   90  30  11 CALM      30.06F
HILL AFB       MOSUNNY   89  37  16 E2        30.10F
LOGAN          SUNNY     89  33  13 CALM      30.07F
OGDEN          MOSUNNY   91  29  11 CALM      30.06F
PROVO AIRPORT  MOSUNNY   90  36  14 VRB6      30.08F
SALT LAKE CITY MOSUNNY   92  35  13 N7        30.04F
VERNAL         CLEAR     83  38  20 CALM      30.17S
WENDOVER       MOSUNNY   91  37  15 E6        30.02F
HEBER CITY     SUNNY     84  41  21 CALM      30.16S
WEST JORDAN    SUNNY     90  37  15 CALM      30.08F

$$

UTZ012>022-026-027-290200-

SOUTHERN/CENTRAL UTAH

CITY           SKY/WX    TMP DP  RH WIND       PRES   REMARKS
BLANDING       PTCLDY    84  35  17 N5        30.25S
BRYCE CANYON   SUNNY     76  40  27 S9        30.34F
CEDAR CITY       N/A     85  38  18 SW10      30.16S
DELTA          SUNNY     91  29  11 W6        30.08F
HANKSVILLE     SUNNY     90  32  12 N3        30.11S
MILFORD        SUNNY     92  35  13 VRB5      30.08F
MOAB/CYNLANDS  CLEAR     91  35  13 NE6       30.08S
PRICE          MOSUNNY   85  32  15 S5        30.20F
ST GEORGE      CLEAR    100  39  12 NW7       29.93F HX  95

$$

REGIONAL REPORTS     COLORADO/ARIZONA

CITY           SKY/WX    TMP DP  RH WIND       PRES   REMARKS
CRAIG, CO      CLEAR     77  46  33 SE5       30.25F
GRAND JUNCTION CLEAR     85  40  20 W5        30.12F
RIFLE          CLEAR     83  39  21 W6        30.19S
MONTROSE       CLEAR     80  44  27 NW8       30.22S
CORTEZ         CLEAR     83  33  16 N8        30.16S
PAGE, AZ       SUNNY     94  36  13 CALM      30.06F
GRAND CANYON   MOSUNNY   81  42  25 SW5       30.27S
KINGMAN        PTSUNNY   97  44  16 NW7       29.99S HX  93
FLAGSTAFF      MOSUNNY   73  52  47 CALM      30.31S

$$

REGIONAL REPORTS    NEVADA/IDAHO/WYOMING

CITY           SKY/WX    TMP DP  RH WIND       PRES   REMARKS
LAS VEGAS, NV  MOSUNNY  103  50  17 S8        29.82S HX 100
ELY            MOSUNNY   82  42  24 S14       30.18F
ELKO           CLOUDY    84  41  21 E9        30.04F
POCATELLO, ID  MOSUNNY   86  44  23 SE9       30.05F
EVANSTON, WY   SUNNY     78  32  18 N9        30.29F
ROCK SPRINGS   PTCLDY    77  30  17 E5        30.27F
KEMMERER       MOSUNNY   77  30  18 NW6       30.31S

$$



USA.gov is the U.S. government's official web portal to all federal, state and local government web resources and services.